Location: Escondida
(34.1015°N, 106.8964°W)
Time: 03:50:58
(UTC+00:00)

BlueWalker 3 - Visible Passes

Search period start: 14 February 2026 00:00
Search period end: 24 February 2026 00:00
Orbit: 450 x 461 km, 53.2° (Epoch: 11 February)

Date Brightness Start Highest point End Pass type
(mag) Time Alt. Az. Time Alt. Az. Time Alt. Az.
19 Feb 5.3 12:49:28 10° SE 12:50:07 10° ESE 12:50:46 10° ESE visible
21 Feb 2.2 13:11:55 10° SW 13:15:29 65° SE 13:19:03 10° NE visible
22 Feb 2.8 12:36:15 10° SSW 12:39:41 44° SE 12:43:07 10° ENE visible
23 Feb 3.4 12:02:12 21° S 12:03:53 31° SE 12:07:05 10° ENE visible
